Location: Unspecified
(43.4354°N, 0.0000°E)
Time: 13:50:52
(UTC+00:00)

Tiros 1 despin weight - Visible Passes

Search period start: 25 June 2019 00:00
Search period end: 05 July 2019 00:00
Orbit: 595 x 642 km, 48.2° (Epoch: 25 June)

Date Brightness Start Highest point End Pass type
(mag) Time Alt. Az. Time Alt. Az. Time Alt. Az.
25 Jun ? 00:35:11 10° WNW 00:39:28 45° N 00:43:44 10° ENE visible
25 Jun ? 02:17:06 10° WNW 02:21:29 60° NNE 02:25:52 10° E visible
25 Jun ? 21:28:30 10° SW 21:32:47 45° SE 21:37:02 10° ENE visible
25 Jun ? 23:09:52 10° W 23:14:18 60° NNW 23:18:41 10° ENE visible
26 Jun ? 00:52:02 10° WNW 00:56:19 45° N 01:00:35 10° ENE visible
26 Jun ? 02:33:45 10° WNW 02:38:12 85° NNE 02:42:37 10° ESE visible
26 Jun ? 21:44:50 10° WSW 21:49:19 76° SSE 21:53:46 10° ENE visible
26 Jun ? 23:26:46 10° W 23:31:06 48° N 23:35:24 10° ENE visible
27 Jun ? 01:08:48 10° WNW 01:13:08 52° NNE 01:17:27 10° E visible
27 Jun ? 02:50:26 10° WNW 02:54:47 60° SSW 02:59:08 10° SE visible
27 Jun ? 20:20:35 10° SSW 20:24:37 33° SE 20:28:38 10° ENE visible
27 Jun ? 22:01:29 10° WSW 22:05:59 72° NNW 22:10:25 10° ENE visible
27 Jun ? 23:43:39 10° WNW 23:47:56 44° N 23:52:11 10° ENE visible
28 Jun ? 01:25:28 10° WNW 01:29:54 69° NNE 01:34:18 10° ESE visible
28 Jun ? 03:07:16 10° WNW 03:11:17 34° SW 03:15:16 10° SSE visible
28 Jun ? 20:36:39 10° SW 20:41:05 57° SSE 20:45:28 10° ENE visible
28 Jun ? 22:18:19 10° W 22:22:44 53° NNW 22:27:06 10° ENE visible
29 Jun ? 00:00:27 10° WNW 00:04:47 47° N 00:09:04 10° E visible
29 Jun ? 01:42:08 10° WNW 01:46:34 80° SSW 01:50:59 10° ESE visible
29 Jun ? 03:24:31 10° W 03:27:37 19° SW 03:30:43 10° S visible
29 Jun ? 20:53:09 10° WSW 20:57:41 89° NNW 21:02:10 10° ENE visible
29 Jun ? 22:35:13 10° W 22:39:33 46° N 22:43:50 10° ENE visible
30 Jun ? 00:17:11 10° WNW 00:21:35 58° NNE 00:25:57 10° E visible
30 Jun ? 01:58:51 10° WNW 02:03:07 47° SW 02:07:21 10° SE visible
30 Jun ? 21:09:54 10° W 21:14:23 62° NNW 21:18:49 10° ENE visible
30 Jun ? 22:52:05 10° WNW 22:56:24 45° N 23:00:40 10° ENE visible
01 Jul ? 00:33:50 10° WNW 00:38:19 81° NNE 00:40:12 34° ESE visible
01 Jul ? 02:15:49 10° W 02:17:03 16° W 02:17:03 16° W visible
01 Jul ? 21:26:47 10° W 21:31:10 49° N 21:35:31 10° ENE visible
01 Jul ? 23:08:51 10° WNW 23:13:14 51° N 23:17:00 13° E visible
02 Jul ? 00:50:31 10° WNW 00:53:57 49° W 00:53:57 49° W visible
02 Jul ? 21:43:40 10° WNW 21:48:00 45° N 21:52:17 10° ENE visible
02 Jul ? 23:25:33 10° WNW 23:30:00 66° NNE 23:31:36 37° E visible
03 Jul ? 01:07:19 10° WNW 01:08:36 18° W 01:08:36 18° W visible
03 Jul ? 20:18:19 10° W 20:22:48 56° NNW 20:27:13 10° ENE visible
03 Jul ? 22:00:30 10° WNW 22:04:51 46° N 22:09:09 10° E visible
03 Jul ? 23:42:12 10° WNW 23:46:33 83° WSW 23:46:33 83° WSW visible
04 Jul ? 20:35:13 10° W 20:39:37 47° N 20:43:57 10° ENE visible
04 Jul ? 22:17:13 10° WNW 22:21:40 56° NNE 22:24:40 19° E visible
